[Date Prev][Date Next][Thread Prev][Thread Next] - [Date Index][Thread Index][Author Index]
2 Line ISS Keps 2-1
- Subject: [sarex] 2 Line ISS Keps 2-1
- From: "Dave Larsen PhD" <doc@xxxxxxxxxxx>
- Date: Tue, 31 Jan 2006 19:36:49 -0800
ISS
1 25544U 98067A 06031.84003270 .00010613 00000-0 75841-4 0 2593
2 25544 051.6437 168.6570 0009319 218.2563 298.0884 15.74377303411678
----
Via the sarex mailing list at AMSAT.ORG courtesy of AMSAT-NA.
To unsubscribe, send "unsubscribe sarex" to Majordomo@amsat.org
AMSAT Home